Regional Weather Roundup
Issued by NWS

Home | Current Version | Previous Version | Graphics & Text | Print | Product List | Glossary On
Versions: 1 2 3 4 5 6 7 8 9 10 11 12 13 14 15 16 17 18 19 20 21 22 23 24 25 26 27 28 29 30 31 32 33 34 35 36 37 38 39 40 41 42 43 44 45 46 47 48 49 50
000
ASUS43 KMPX 201810
RWRMN
WEATHER ROUNDUP FOR MINNESOTA
NATIONAL WEATHER SERVICE TWIN CITIES/CHANHASSEN MN
100 PM CDT FRI OCT 20 2017


NOTE: "FAIR" INDICATES FEW OR NO CLOUDS BELOW 12,000 FEET WITH NO
SIGNIFICANT WEATHER AND/OR OBSTRUCTIONS TO VISIBILITY. N/A MEANS
CURRENT SKY AND/OR WEATHER CONDITIONS ARE NOT AVAILABLE.

MNZ060>063-068>070-201900-
   Twin Cities Metro

CITY           SKY/WX    TMP DP  RH WIND       PRES   REMARKS
TWIN CITIES    MOSUNNY   75  51  43 S18G26    29.83F
6HR MIN TEMP:  53; 6HR MAX TEMP:  75;

ST PAUL        SUNNY     74  53  48 S17G28    29.84F
CRYSTAL        SUNNY     73  49  42 S14G24    29.80F
BLAINE         MOSUNNY   75  52  43 S16G25    29.81F
LAKEVILLE      SUNNY     73  54  49 S15       29.84F
EDEN PRAIRIE   SUNNY     75  50  41 S22       29.81F
6HR MIN TEMP:  57; 6HR MAX TEMP:  75;

SOUTH ST PAUL  SUNNY     74  50  42 S16G23    29.83F
LAKE ELMO      FAIR      73  54  49 S23       29.85F
$$
MNZ001>005-007-008-013>017-022>024-027-028-201900-
   Northwest Minnesota

CITY           SKY/WX    TMP DP  RH WIND       PRES   REMARKS
BEMIDJI        SUNNY     72  50  46 S14       29.63F
HALLOCK        SUNNY     73  48  40 S21       29.46F
ROSEAU         SUNNY     73  54  49 S16       29.52F
WARROAD        SUNNY     72  55  56 SE14      29.55F
THIEF RVR FALL SUNNY     75  50  41 S20G28    29.53F
CROOKSTON      SUNNY     75  50  41 S25G33    29.50F
FOSSTON        SUNNY     75  45  33 S20G28    29.57F
DETROIT LAKES  SUNNY     68  50  52 S21G26    29.62F
MOORHEAD       SUNNY     72  50  46 S24G32    29.55F
PARK RAPIDS    SUNNY     70  51  51 S22G29    29.65F
MAHNOMEN       FAIR      73  50  44 S16G24    29.57F
$$
MNZ006-009>011-018-025>026-201900-
   North Central Minnesota

CITY           SKY/WX    TMP DP  RH WIND       PRES   REMARKS
BAUDETTE       SUNNY     72  51  47 SE13      29.59F
FLAG ISLAND    SUNNY     59  48  67 SE10      29.56F
INTL FALLS     SUNNY     74  48  39 S8G17     29.65F
6HR MIN TEMP:  43; 6HR MAX TEMP:  74;

WASKISH        MOSUNNY   73  50  43 SE13G22   29.61F
BIG FORK       SUNNY     72  50  46 S12G21    29.68F
LONGVILLE      SUNNY     72  48  43 S12G20    29.70F
GRAND RAPIDS   SUNNY     68  50  52 S20G25    29.73F
CRANE LAKE     SUNNY     70  46  43 S12       29.71F
ORR            SUNNY     73  45  35 S13G18    29.68F
COOK           SUNNY     72  50  46 SE14      29.72F
WALKER         FAIR      68  49  50 SE9       29.66F
$$
MNZ012-019>021-037-201900-
   Northeast Minnesota

CITY           SKY/WX    TMP DP  RH WIND       PRES   REMARKS
DULUTH         SUNNY     69  51  52 S17       29.79F
6HR MIN TEMP:  50; 6HR MAX TEMP:  70;

ELY            SUNNY     72  45  37 S9G21     29.75F
HIBBING        SUNNY     69  48  47 S14G21    29.75F
EVELETH        SUNNY     73  38  28 S14       29.76F
DULUTH HARBOR  SUNNY     59  55  88 N9        29.79F
TWO HARBORS    SUNNY     72  55  56 S13       29.79F
SILVER BAY     SUNNY     68  52  56 S14       29.80F
GRAND MARAIS     N/A     54  47  77 E5        29.83F
G MARAIS ARPRT SUNNY     64  45  48 S14       29.84F
$$
MNZ029>031-032-039>041-046>048-054>057-064-201900-
   West Central Minnesota

CITY           SKY/WX    TMP DP  RH WIND       PRES   REMARKS
FERGUS FALLS   SUNNY     70  52  52 S23       29.61F
WHEATON        MOSUNNY   70  48  46 SE17G29   29.62S
MORRIS         MOSUNNY   72  52  49 S26       29.64F
ALEXANDRIA     SUNNY     69  51  52 S18G28    29.70F
ELBOW LAKE     FAIR      68  53  57 S23G31    29.64F
WADENA         SUNNY     70  52  52 S18       29.66F
GLENWOOD       SUNNY     70  52  52 S21       29.70F
APPLETON       SUNNY     73  50  43 S16G25    29.65F
BENSON         MOSUNNY   73  52  46 S20G25    29.69F
ORTONVILLE     MOSUNNY   70  52  52 N16G26    29.63F
MADISON        SUNNY     75  54  46 S20G25    29.65F
WILLMAR        FAIR      73  54  49 S12G24    29.73F
$$
MNZ033>034-036-042>043-049>051-058-059-201900-
   Central Minnesota

CITY           SKY/WX    TMP DP  RH WIND       PRES   REMARKS
ST CLOUD       SUNNY     71  52  50 S18G29    29.76F
6HR MIN TEMP:  48; 6HR MAX TEMP:  72;

SAUK CENTRE    FAIR      70  52  52 S22       29.72F
PAYNESVILLE    SUNNY     73  52  47 S14G25    29.74F
AITKIN         SUNNY     68  48  49 S16G23    29.73F
PINE RIVER     SUNNY     66  50  55 S13G23    29.74F
BRAINERD       SUNNY     70  51  51 S15G21    29.73F
STAPLES        SUNNY     70  48  46 SE10G18   29.69F
LONG PRAIRIE   FAIR      68  50  52 SE18      29.72F
LITTLE FALLS   SUNNY     68  41  37 SE13      29.74F
LITCHFIELD     SUNNY     73  54  49 S8        29.76F
BUFFALO        SUNNY     73  49  43 S12G20    29.79F
MAPLE LAKE     SUNNY     73  54  51 S9G18     29.78F
HUTCHINSON     SUNNY     75  54  48 S12G22    29.78F
$$
MNZ037-044-045-052-053-201900-
   East Central Minnesota

CITY           SKY/WX    TMP DP  RH WIND       PRES   REMARKS
PRINCETON      SUNNY     73  54  49 S13G18    29.78F
MORA           SUNNY     70  50  49 S15       29.80F
CAMBRIDGE      SUNNY     75  55  50 S17       29.80F
RUSH CITY      SUNNY     71  51  49 S14       29.81F
MOOSE LAKE     SUNNY     72  50  46 S9        29.77F
HINCKLEY       FAIR      72  52  49 S14G22    29.80F
CLOQUET        SUNNY     72  46  40 SE9G16    29.79F
MCGREGOR       SUNNY     70  52  52 S12       29.76F
$$
MNZ071>073-080-081-089-090-097-098-201900-
   Southwest Minnesota

CITY           SKY/WX    TMP DP  RH WIND       PRES   REMARKS
MONTEVIDEO     SUNNY     73  52  46 SW15G26   29.68F
GRANITE FALLS  SUNNY     74  55  49 SE18G29   29.72F
CANBY          MOSUNNY   73  53  49 S15G24    29.67F
MARSHALL       SUNNY     73  54  51 S28G35    29.69F
REDWOOD FALLS  SUNNY     73  50  44 S26G35    29.74F
OLIVIA         SUNNY     73  54  49 S22G30    29.73F
PIPESTONE      SUNNY     66  52  59 S18G30    29.72F
WORTHINGTON    SUNNY     72  53  51 S21G29    29.77F
JACKSON        SUNNY     73  52  46 S17G28    29.81F
TRACY          SUNNY     73  55  53 S15G31    29.73F
SLAYTON        SUNNY     72  53  51 S25G31    29.75F
$$
MNZ065>067-074>077-082>085-091>093-201900-
   South Central Minnesota

CITY           SKY/WX    TMP DP  RH WIND       PRES   REMARKS
MANKATO        SUNNY     72  52  49 S20G26    29.82F
NEW ULM        SUNNY     72  52  49 S21G26    29.79F
ST JAMES       SUNNY     73  54  49 S20G25    29.81F
FAIRMONT       SUNNY     73  55  53 S29       29.81F
GLENCOE        SUNNY     75  51  42 S15G25    29.79F
FARIBAULT      MOSUNNY   75  52  43 SE14G22   29.86F
OWATONNA       SUNNY     75  52  43 S18G28    29.87F
WASECA         SUNNY     72  50  46 S21G26    29.87F
$$
MNZ078>079-086>088-094>096-201900-
   Southeast Minnesota

CITY           SKY/WX    TMP DP  RH WIND       PRES   REMARKS
ROCHESTER      SUNNY     73  52  47 S24G32    29.92F
6HR MIN TEMP:  53; 6HR MAX TEMP:  73;

RED WING       SUNNY     75  45  33 S13G22    29.87F
STANTON        SUNNY     74  51  43 S13G23    29.85F
DODGE CENTER   SUNNY     72  48  43 S24G30    29.90F
WINONA         SUNNY     73  50  43 S6G18     29.93F
AUSTIN         SUNNY     70  52  52 S14       29.91F
PRESTON        SUNNY     72  49  44 S16G24    29.95F
$$
ABBREVIATIONS USED IN REMARKS
   TC - TEMPERATURES IN CELSIUS
  WCI - WIND CHILL INDEX
   HX - HEAT INDEX
  VSB - VISIBILITY
$$




USA.gov is the U.S. government's official web portal to all federal, state and local government web resources and services.